Torna al catalogo

ATLAS 5 CENTAUR DEB

LostHEO
NORAD 47120·DEBRIS·🇺🇸 United States

Lanciato Sep 17, 2014 da Cape Canaveral Space Force Station

Loading…

Prossimi Passaggi (prossime 24 ore)

TLE

ObsoletoSource: Space-Track

Epoca: Aug 15, 2025, 02:13 UTC

1 47120U 14055DF  25227.09303237  .00000007  00000-0  00000+0 0  9990
2 47120  19.1922 207.3752 4814195  45.4934 345.0201  1.73007169 30661

Traccia ATLAS 5 CENTAUR DEB in tempo reale con AllMySat

Download on the App Store